Boone, NC

4:16 PM EDT on June 27, 2017 (GMT -0400)
Boone

Weather History for KTNB - November, 2012

Change the Weather History Date:

Tuesday, November 13, 2012

  Actual Average (KGEV) Record (KGEV)
Temperature  
Mean Temperature 36 °F -  
Max Temperature 44 °F 53 °F 70 °F (1989)
Min Temperature 26 °F 30 °F 17 °F (1977)
Degree Days  
Heating Degree Days 29    
Moisture  
Dew Point 30 °F    
Average Humidity 80    
Maximum Humidity 100    
Minimum Humidity 43    
Precipitation  
Precipitation 0.03 in - - ()
Sea Level Pressure  
Sea Level Pressure 30.31 in    
Wind  
Wind Speed 12 mph (WNW)    
Max Wind Speed 23 mph    
Max Gust Speed 32 mph    
Visibility 10 miles    
Events Rain    
Averages and records for this station are not official NWS values.
T = Trace of Precipitation, MM = Missing Value Source: NWS Daily Summary

Daily Weather History Graph

Daily Weather History Graph

Search for Another Location

Airport or City:

Trip Planner

Search our weather history database for the weather conditions in past years. The results will help you decide how hot, cold, wet, or windy it might be!

Date:

Astronomy

Nov. 13, 2012 Rise Set
Actual Time 7:02 AM EST 5:19 PM EST
Civil Twilight 6:34 AM EST 5:46 PM EST
Nautical Twilight 6:03 AM EST 6:17 PM EST
Astronomical Twilight 5:33 AM EST 6:48 PM EST
Moon 6:38 AM EST (11/13) 5:12 PM EST (11/13)
Length of Visible Light 11h 12m
Length of Day
10h 17m
Waning Crescent, 0% of the Moon is Illuminated
Nov 13
Waning Crescent
Nov 13
New
Nov 20
First Quarter
Nov 28
Full
Dec 6
Last Quarter

Hourly Weather History & Observations

Time (EST) Temp. Windchill Dew Point Humidity Pressure Visibility Wind Dir Wind Speed Gust Speed Precip Events Conditions
12:15 AM 41.0 °F 33.5 °F 41.0 °F 100% 30.25 in 5.0 mi WNW 13.8 mph 24.2 mph 0.01 in Rain Light Rain
12:35 AM 41.0 °F 33.5 °F 41.0 °F 100% 30.25 in 7.0 mi WNW 13.8 mph 23.0 mph 0.03 in Rain Light Rain
12:55 AM 41.0 °F 34.3 °F 41.0 °F 100% 30.26 in 7.0 mi WNW 11.5 mph 19.6 mph 0.03 in Rain Rain
1:15 AM 41.0 °F 33.9 °F 41.0 °F 100% 30.25 in 5.0 mi WNW 12.7 mph 21.9 mph N/A Rain Light Rain
1:35 AM 39.2 °F 30.5 °F 39.2 °F 100% 30.25 in 10.0 mi WNW 16.1 mph 27.6 mph N/A Rain Light Rain
1:55 AM 39.2 °F 31.2 °F 37.4 °F 93% 30.25 in 7.0 mi NW 13.8 mph 24.2 mph N/A Rain Light Rain
2:15 AM 37.4 °F 28.2 °F 37.4 °F 100% 30.25 in 10.0 mi WNW 16.1 mph 29.9 mph N/A   Overcast
2:35 AM 37.4 °F 29.3 °F 37.4 °F 100% 30.25 in 10.0 mi WNW 12.7 mph 24.2 mph N/A   Overcast
2:55 AM 35.6 °F 26.6 °F 35.6 °F 100% 30.25 in 10.0 mi WNW 13.8 mph 20.7 mph N/A Rain Light Rain
3:15 AM 35.6 °F 26.6 °F 35.6 °F 100% 30.25 in 10.0 mi WNW 13.8 mph 21.9 mph N/A   Overcast
3:35 AM 35.6 °F 27.5 °F 33.8 °F 93% 30.25 in 10.0 mi WNW 11.5 mph - N/A   Overcast
3:55 AM 35.6 °F 27.1 °F 32.0 °F 87% 30.25 in 10.0 mi West 12.7 mph 19.6 mph N/A   Overcast
4:15 AM 33.8 °F 23.9 °F 32.0 °F 93% 30.24 in 10.0 mi West 15.0 mph 18.4 mph N/A   Mostly Cloudy
4:35 AM 33.8 °F 24.3 °F 32.0 °F 93% 30.24 in 10.0 mi WNW 13.8 mph 23.0 mph N/A   Mostly Cloudy
4:55 AM 33.8 °F 24.3 °F 32.0 °F 93% 30.25 in 10.0 mi WNW 13.8 mph 20.7 mph N/A   Overcast
5:15 AM 33.8 °F 24.3 °F 32.0 °F 93% 30.25 in 10.0 mi WNW 13.8 mph 25.3 mph N/A   Overcast
5:35 AM 33.8 °F 23.9 °F 32.0 °F 93% 30.26 in 10.0 mi WNW 15.0 mph 26.5 mph N/A   Overcast
5:55 AM 33.8 °F 21.9 °F 32.0 °F 93% 30.26 in 10.0 mi WNW 21.9 mph 29.9 mph N/A   Overcast
6:15 AM 33.8 °F 21.6 °F 32.0 °F 93% 30.26 in 10.0 mi WNW 23.0 mph 32.2 mph N/A   Overcast
6:55 AM 32.0 °F 20.8 °F 32.0 °F 100% 30.27 in 10.0 mi WNW 17.3 mph 27.6 mph N/A   Scattered Clouds
7:35 AM 32.0 °F 20.5 °F 30.2 °F 93% 30.28 in 10.0 mi WNW 18.4 mph 29.9 mph N/A   Clear
7:55 AM 32.0 °F 23.6 °F 32.0 °F 100% 30.30 in 10.0 mi WNW 10.4 mph 20.7 mph N/A   Scattered Clouds
8:15 AM 32.0 °F 20.1 °F 30.2 °F 93% 30.31 in 10.0 mi WNW 19.6 mph 26.5 mph N/A   Scattered Clouds
8:35 AM 32.0 °F 20.8 °F 30.2 °F 93% 30.31 in 10.0 mi WNW 17.3 mph 29.9 mph N/A   Clear
8:55 AM 32.0 °F 22.1 °F 30.2 °F 93% 30.32 in 10.0 mi WNW 13.8 mph - N/A   Clear
9:15 AM 32.0 °F 20.1 °F 30.2 °F 93% 30.32 in 10.0 mi West 19.6 mph 24.2 mph N/A   Scattered Clouds
9:35 AM 32.0 °F 20.5 °F 30.2 °F 93% 30.32 in 10.0 mi WNW 18.4 mph 25.3 mph N/A   Clear
9:55 AM 33.8 °F 24.8 °F 30.2 °F 87% 30.33 in 10.0 mi WNW 12.7 mph 24.2 mph N/A   Clear
10:15 AM 33.8 °F 23.2 °F 30.2 °F 87% 30.33 in 10.0 mi West 17.3 mph 23.0 mph N/A   Clear
10:35 AM 35.6 °F 25.5 °F 28.4 °F 75% 30.33 in 10.0 mi West 17.3 mph 20.7 mph N/A   Clear
10:55 AM 35.6 °F 25.2 °F 28.4 °F 75% 30.32 in 10.0 mi WNW 18.4 mph 24.2 mph N/A   Clear
11:15 AM 37.4 °F 27.8 °F 28.4 °F 70% 30.32 in 10.0 mi West 17.3 mph 21.9 mph N/A   Clear
11:35 AM 37.4 °F 27.5 °F 28.4 °F 70% 30.32 in 10.0 mi West 18.4 mph 21.9 mph N/A   Clear
11:55 AM 39.2 °F 30.2 °F 28.4 °F 65% 30.31 in 10.0 mi West 17.3 mph 21.9 mph N/A   Clear
12:15 PM 41.0 °F 33.1 °F 28.4 °F 61% 30.31 in 10.0 mi West 15.0 mph 20.7 mph N/A   Clear
12:35 PM 42.8 °F 35.4 °F 26.6 °F 53% 30.30 in 10.0 mi West 15.0 mph - N/A   Clear
12:55 PM 42.8 °F 35.8 °F 24.8 °F 49% 30.29 in 10.0 mi West 13.8 mph - N/A   Clear
1:15 PM 44.6 °F 38.1 °F 24.8 °F 46% 30.29 in 10.0 mi West 13.8 mph 18.4 mph N/A   Clear
1:55 PM 44.6 °F 37.8 °F 23.0 °F 43% 30.28 in 10.0 mi West 15.0 mph - N/A   Clear
2:15 PM 44.6 °F 38.4 °F 23.0 °F 43% 30.29 in 10.0 mi WNW 12.7 mph - N/A   Clear
2:35 PM 44.6 °F 39.7 °F 23.0 °F 43% 30.29 in 10.0 mi NW 9.2 mph 19.6 mph N/A   Clear
2:55 PM 44.6 °F 39.7 °F 23.0 °F 43% 30.29 in 10.0 mi WNW 9.2 mph - N/A   Clear
3:15 PM 44.6 °F 40.7 °F 26.6 °F 49% 30.29 in 10.0 mi West 6.9 mph - N/A   Clear
3:35 PM 42.8 °F 36.6 °F 26.6 °F 53% 30.29 in 10.0 mi West 11.5 mph 16.1 mph N/A   Clear
3:55 PM 42.8 °F 38.0 °F 28.4 °F 57% 30.29 in 10.0 mi West 8.1 mph - N/A   Clear
4:15 PM 42.8 °F 37.0 °F 28.4 °F 57% 30.30 in 10.0 mi West 10.4 mph - N/A   Clear
4:35 PM 42.8 °F 37.0 °F 26.6 °F 53% 30.30 in 10.0 mi West 10.4 mph - N/A   Clear
4:55 PM 41.0 °F 37.1 °F 26.6 °F 57% 30.31 in 10.0 mi West 5.8 mph - N/A   Clear
5:15 PM 41.0 °F 36.4 °F 28.4 °F 61% 30.31 in 10.0 mi WNW 6.9 mph - N/A   Clear
5:35 PM 39.2 °F 35.0 °F 23.0 °F 52% 30.32 in 10.0 mi West 5.8 mph - N/A   Clear
5:55 PM 37.4 °F 31.4 °F 24.8 °F 60% 30.32 in 10.0 mi WNW 8.1 mph - N/A   Clear
6:15 PM 37.4 °F 33.8 °F 26.6 °F 65% 30.33 in 10.0 mi West 4.6 mph - N/A   Clear
6:35 PM 35.6 °F 30.7 °F 24.8 °F 65% 30.33 in 10.0 mi WNW 5.8 mph - N/A   Clear
6:55 PM 35.6 °F 31.7 °F 24.8 °F 65% 30.34 in 10.0 mi WNW 4.6 mph - N/A   Clear
7:15 PM 35.6 °F 31.7 °F 24.8 °F 65% 30.34 in 10.0 mi West 4.6 mph - N/A   Clear
7:35 PM 33.8 °F 30.8 °F 24.8 °F 70% 30.35 in 10.0 mi West 3.5 mph - N/A   Clear
7:55 PM 32.0 °F 28.7 °F 26.6 °F 80% 30.35 in 10.0 mi West 3.5 mph - N/A   Clear
8:15 PM 32.0 °F - 26.6 °F 80% 30.36 in 10.0 mi Calm Calm - N/A   Clear
8:35 PM 32.0 °F - 26.6 °F 80% 30.37 in 10.0 mi Calm Calm - N/A   Clear
8:55 PM 28.4 °F - 28.4 °F 100% 30.37 in 10.0 mi Calm Calm - N/A   Clear
9:15 PM 30.2 °F - 26.6 °F 86% 30.37 in 10.0 mi Calm Calm - N/A   Clear
9:35 PM 30.2 °F - 26.6 °F 86% 30.38 in 10.0 mi Calm Calm - N/A   Clear
9:55 PM 28.4 °F - 28.4 °F 100% 30.38 in 10.0 mi Calm Calm - N/A   Clear
10:15 PM 28.4 °F - 28.4 °F 100% 30.38 in 10.0 mi Calm Calm - N/A   Clear
10:35 PM 28.4 °F - 28.4 °F 100% 30.38 in 10.0 mi Calm Calm - N/A   Clear
10:55 PM 28.4 °F - 28.4 °F 100% 30.38 in 10.0 mi Calm Calm - N/A   Clear
11:15 PM 28.4 °F - 28.4 °F 100% 30.37 in 10.0 mi Calm Calm - N/A   Clear
11:35 PM 28.4 °F - 26.6 °F 93% 30.37 in 10.0 mi Calm Calm - N/A   Clear
11:55 PM 26.6 °F - 26.6 °F 100% 30.37 in 10.0 mi Calm Calm - N/A   Clear